﻿Дата;Google;AdRiver
2019-09-11;1;0
2019-09-09;1;0
2019-09-04;1;0
2019-09-03;1;0
2019-08-21;1;0
2019-07-31;1;0
2019-07-15;1;0
2019-07-06;1;0
2019-06-25;1;0
2019-06-22;1;0
2019-06-21;1;0
2019-06-19;1;0
2019-06-17;1;0
2019-05-22;1;0
2019-04-26;1;0
2019-04-25;1;0
2019-04-23;1;0
2019-04-10;3;0
2019-04-09;1;0
2019-04-07;1;0
2019-04-03;1;0
2019-03-29;2;0
2019-03-28;2;0
2019-03-26;3;0
2019-03-25;1;0
2019-03-19;2;0
2019-03-18;1;0
2019-03-17;1;0
2019-03-16;1;0
2019-03-12;1;0
2019-03-10;1;0
2019-03-09;1;0
2019-03-04;1;0
2019-03-01;2;0
2019-02-28;2;0
2019-02-27;2;0
2019-02-26;1;0
2019-02-25;1;0
2019-02-24;2;0
2019-02-23;1;0
2019-02-21;3;0
2019-02-19;2;0
2019-02-17;1;0
2019-02-16;1;0
2019-02-13;1;0
2019-02-12;1;0
2019-02-11;1;0
2019-02-10;1;0
2019-02-09;3;0
2019-02-08;1;0
2019-02-05;3;0
2019-02-04;1;0
2019-02-03;2;0
2019-02-02;2;0
2019-02-01;2;0
2019-01-31;1;0
2019-01-30;1;0
2019-01-29;2;0
2019-01-28;2;0
2019-01-27;1;0
2019-01-26;2;0
2019-01-25;2;0
2019-01-24;3;0
2019-01-23;2;0
2019-01-22;1;0
2019-01-18;1;0
2019-01-17;1;0
2019-01-16;1;0
2019-01-15;2;0
2019-01-14;1;0
2019-01-12;1;0
2019-01-10;1;0
2019-01-08;1;0
2019-01-07;2;0
2019-01-06;2;0
2019-01-05;1;0
2019-01-04;1;0
2019-01-02;2;0
2018-12-31;1;0
2018-12-29;3;0
2018-12-28;5;0
2018-12-27;1;0
2018-12-26;3;0
2018-12-25;2;0
2018-12-24;4;0
2018-12-23;4;0
2018-12-22;3;0
2018-12-21;1;0
2018-12-20;1;0
2018-12-19;3;0
2018-12-18;1;0
2018-12-17;1;0
2018-12-16;3;0
2018-12-15;4;0
2018-12-13;1;0
2018-12-12;2;0
2018-12-10;6;0
2018-12-09;2;0
2018-12-08;1;0
2018-12-06;1;0
2018-12-05;4;0
2018-12-01;2;0
2018-11-27;1;0
2018-11-23;1;0
2018-11-21;1;0
2018-11-18;1;0
2018-11-16;2;0
2018-11-09;1;0
2018-11-06;1;0
2018-11-04;1;0
2018-11-02;1;0
2018-11-01;3;0
2018-10-27;1;0
2018-10-12;1;0
2018-10-11;1;0
2018-10-02;1;0
2018-09-10;1;0
2018-09-08;1;0
2018-08-21;1;0
2018-08-10;1;0
2018-08-05;1;0
2018-08-04;1;0
2018-06-24;1;0
2018-06-23;1;0
2018-06-12;1;0
2018-05-29;1;0
2018-05-13;1;0
2018-05-06;1;0
2018-05-03;1;0
2018-04-24;1;0
2018-04-20;1;0
2018-04-01;1;0
2018-03-23;1;0
2018-02-26;2;0
2018-02-25;1;0
2018-02-18;1;0
2018-02-08;1;0
2018-01-27;1;0
2018-01-20;1;0
2017-12-18;1;0
2017-11-26;1;0
2017-11-23;1;0
2017-11-09;1;0
2017-10-11;1;0
2017-09-10;1;0
2017-06-22;1;0
2017-06-17;1;0
2017-06-06;1;0
2017-05-29;1;0
2017-05-15;1;0
2017-04-21;1;0
2017-04-19;1;0
2017-04-16;1;0
2017-04-15;1;0
2017-04-11;1;0
2017-03-30;1;0
2017-03-22;1;0
2017-03-19;1;0
2017-03-18;1;0
2017-03-14;1;0
2017-02-21;1;0
2017-02-12;1;0
2017-02-10;1;0
2017-02-09;1;0
2017-02-08;1;0
2017-02-05;2;0
2017-01-29;2;0
2017-01-28;1;0
2017-01-27;2;0
2017-01-26;1;0
2017-01-24;2;0
2017-01-23;1;0
2017-01-04;1;0
2016-12-30;1;0
2016-12-17;1;0
2016-12-13;2;0
2016-12-12;1;0
2016-11-09;0;1
2016-08-20;1;0
2016-07-14;1;0
2016-06-12;1;0
2016-05-20;1;0
2016-05-15;1;0
2016-05-04;2;0
2016-05-02;1;0
2016-04-26;1;0
2016-04-18;2;0
2016-04-16;1;0
2016-04-14;1;0
2016-03-24;1;0
2016-03-16;1;0
2016-03-14;1;0
2016-03-11;1;0
2016-03-01;1;0
2016-02-21;1;0
2016-02-12;1;0
2016-02-10;1;0
2016-02-09;1;0
2016-02-07;1;0
2016-02-02;1;0
2016-01-29;1;0
2016-01-28;1;0
2016-01-23;2;0
2016-01-17;2;0
2016-01-12;2;0
2016-01-11;1;0
2016-01-05;1;0
2016-01-03;1;0
2015-12-24;1;0
2015-12-17;1;0
2015-12-15;1;0
2015-12-10;1;0
2015-11-29;1;0
2015-11-28;1;0
2015-11-25;1;0
2015-11-22;2;0
2015-11-21;1;0
2015-11-20;2;0
2015-11-10;1;0
2015-11-08;2;0
2015-11-05;1;0
2015-10-23;1;0
2015-10-12;2;0
2015-10-03;1;0
2015-09-29;1;0
2015-09-28;2;0
2015-09-26;1;0
2015-09-23;1;0
2015-09-20;1;0
2015-09-19;1;0
2015-09-15;1;0
2015-09-11;1;0
2015-09-08;1;0
2015-09-06;1;0
2015-09-05;1;0
2015-08-31;1;0
2015-08-30;2;0
2015-08-29;1;0
2015-08-25;1;0
2015-08-24;2;0
2015-08-20;1;0
2015-08-18;1;0
2015-08-16;2;0
2015-08-15;3;0
2015-08-14;1;0
2015-08-11;1;0
2015-08-10;1;0
2015-08-08;1;0
2015-08-06;3;0
2015-08-05;1;0
2015-08-01;2;0
2015-07-31;1;0
2015-07-30;3;0
2015-07-28;2;0
2015-07-27;1;0
2015-07-25;1;0
2015-07-23;2;0
2015-07-22;1;0
2015-07-20;2;0
2015-07-19;3;0
2015-07-18;2;0
2015-07-17;3;0
2015-07-16;3;0
2015-07-15;3;0
2015-07-14;3;0
2015-07-13;9;0
2015-07-12;11;0
2015-07-11;3;0
2015-07-10;3;0
2015-07-09;6;0
2015-07-08;6;0
2015-07-07;8;0
2015-07-06;3;0
2015-07-05;4;0
2015-07-04;2;0
2015-07-03;3;0
2015-07-02;1;0
2015-07-01;2;0
2015-06-30;7;0
2015-06-29;3;0
2015-06-28;7;0
2015-06-27;4;0
2015-06-25;6;0
2015-06-24;6;0
2015-06-23;4;0
2015-06-22;5;0
2015-06-21;1;0
2015-06-20;1;0
2015-06-19;2;0
2015-06-18;1;0
2015-06-17;5;0
2015-06-16;4;0
2015-06-15;7;0
2015-06-14;7;0
2015-06-13;1;0
2015-06-12;2;0
2015-06-11;5;0
2015-06-10;4;0
2015-06-09;5;0
2015-06-08;7;0
2015-06-07;5;0
2015-06-06;2;0
2015-06-05;2;0
2015-06-04;2;0
2015-06-03;3;0
2015-06-02;6;0
2015-06-01;10;0
2015-05-31;6;0
2015-05-30;2;0
2015-05-29;1;0
2015-05-28;6;0
2015-05-27;6;0
2015-05-26;4;0
2015-05-25;6;0
2015-05-24;6;0
2015-05-23;6;0
2015-05-22;7;0
2015-05-21;15;0
2015-05-20;1;0
2015-05-19;5;0
2015-05-18;2;0
2015-05-17;6;0
2015-05-16;7;0
2015-05-15;5;0
2015-05-14;5;0
2015-05-13;1;0
2015-05-12;8;0
2015-05-11;5;0
2015-05-10;4;0
2015-05-09;1;0
2015-05-08;5;0
2015-05-07;2;0
2015-05-06;4;0
2015-05-05;5;0
2015-05-04;4;0
2015-05-03;6;0
2015-05-02;5;0
2015-05-01;5;0
2015-04-30;3;0
2015-04-29;4;0
2015-04-28;6;0
2015-04-27;9;0
2015-04-26;3;0
2015-04-25;5;0
2015-04-24;5;0
2015-04-23;4;0
2015-04-22;5;0
2015-04-21;8;0
2015-04-20;6;0
2015-04-19;5;0
2015-04-18;3;0
2015-04-17;6;0
2015-04-16;10;0
2015-04-15;10;0
2015-04-14;7;0
2015-04-13;4;0
2015-04-12;5;0
2015-04-11;8;0
2015-04-10;4;0
2015-04-09;5;0
2015-04-08;11;0
2015-04-07;13;0
2015-04-06;8;0
2015-04-05;5;0
2015-04-04;8;0
2015-04-03;9;0
2015-04-02;9;0
2015-04-01;10;0
2015-03-31;12;0
2015-03-30;12;0
2015-03-29;15;0
2015-03-28;6;0
2015-03-27;8;0
2015-03-26;7;0
2015-03-25;7;0
2015-03-24;10;0
2015-03-23;12;0
2015-03-22;11;0
2015-03-21;12;0
2015-03-20;11;0
2015-03-19;8;0
2015-03-18;9;0
2015-03-17;5;0
2015-03-16;8;0
2015-03-15;9;0
2015-03-14;7;0
2015-03-13;2;0
2015-03-12;4;0
2015-03-11;8;0
2015-03-10;9;0
2015-03-09;9;0
2015-03-08;6;0
2015-03-07;4;0
2015-03-06;8;0
2015-03-05;8;0
2015-03-04;6;0
2015-03-03;10;0
2015-03-02;10;0
2015-03-01;2;0
2015-02-28;9;0
2015-02-27;5;0
2015-02-26;12;0
2015-02-25;9;0
2015-02-24;9;0
2015-02-23;11;0
2015-02-22;8;0
2015-02-21;12;0
2015-02-20;7;0
2015-02-19;9;0
2015-02-18;9;0
2015-02-17;10;0
2015-02-16;9;0
2015-02-15;8;0
2015-02-14;8;0
2015-02-13;8;0
2015-02-12;12;0
2015-02-11;9;0
2015-02-10;18;0
2015-02-09;7;0
2015-02-08;12;0
2015-02-07;11;0
2015-02-06;8;0
2015-02-05;6;0
2015-02-04;2;0
2015-02-03;12;0
2015-02-02;9;0
2015-02-01;14;0
2015-01-31;12;0
2015-01-30;14;0
2015-01-29;6;0
2015-01-28;5;0
2015-01-27;8;0
2015-01-26;7;0
2015-01-25;11;0
2015-01-24;18;0
2015-01-23;12;0
2015-01-22;9;0
2015-01-21;12;0
2015-01-20;5;0
2015-01-19;9;0
2015-01-18;17;0
2015-01-17;8;0
2015-01-16;7;0
2015-01-15;7;0
2015-01-14;8;0
2015-01-13;7;0
2015-01-12;17;0
2015-01-11;6;0
2015-01-10;13;0
2015-01-09;16;0
2015-01-08;16;0
2015-01-07;7;0
2015-01-06;10;0
2015-01-05;15;0
2015-01-04;15;0
2015-01-03;8;0
2015-01-02;6;0
2015-01-01;15;0
2014-12-31;3;0
2014-12-30;5;0
2014-12-29;11;0
2014-12-28;5;0
2014-12-27;8;0
2014-12-26;6;0
2014-12-25;9;0
2014-12-24;2;0
2014-12-23;10;0
2014-12-22;9;0
2014-12-21;5;0
2014-12-20;9;0
2014-12-19;14;0
2014-12-18;10;0
2014-12-17;9;0
2014-12-16;6;0
2014-12-15;6;0
2014-12-14;9;0
2014-12-13;4;0
2014-12-12;8;0
2014-12-11;8;0
2014-12-10;9;0
2014-12-09;7;0
2014-12-08;5;0
2014-12-07;9;0
2014-12-06;7;0
2014-12-05;3;0
2014-12-04;5;0
2014-12-03;6;0
2014-12-02;4;0
2014-12-01;8;0
2014-11-30;9;0
2014-11-29;5;0
2014-11-28;10;0
2014-11-27;4;0
2014-11-26;12;0
2014-11-25;6;0
2014-11-24;9;0
2014-11-23;6;0
2014-11-22;13;0
2014-11-21;7;0
2014-11-20;7;0
2014-11-19;10;0
2014-11-18;17;0
2014-11-17;13;0
2014-11-16;9;0
2014-11-15;11;0
2014-11-14;7;0
2014-11-13;8;0
2014-11-12;6;0
2014-11-11;7;0
2014-11-10;9;0
2014-11-09;7;0
2014-11-08;8;0
2014-11-07;16;0
2014-11-06;17;0
2014-11-05;14;0
2014-11-04;8;0
2014-11-03;9;0
2014-11-02;12;0
2014-11-01;4;0
2014-10-31;8;0
2014-10-30;9;0
2014-10-29;12;0
2014-10-28;11;0
2014-10-27;12;0
2014-10-26;7;0
2014-10-25;6;0
2014-10-24;10;0
2014-10-23;5;0
2014-10-22;11;0
2014-10-21;7;0
2014-10-20;9;0
2014-10-19;6;0
2014-10-18;10;0
2014-10-17;9;0
2014-10-16;7;0
2014-10-15;6;0
2014-10-14;14;0
2014-10-13;12;0
2014-10-12;12;0
2014-10-11;12;0
2014-10-10;5;0
2014-10-09;5;0
2014-10-08;5;0
2014-10-07;5;0
2014-10-06;9;0
2014-10-05;7;0
2014-10-04;7;0
2014-10-03;5;0
2014-10-02;14;0
2014-10-01;9;0
2014-09-30;6;0
2014-09-29;10;0
2014-09-28;5;0
2014-09-27;6;0
2014-09-26;6;0
2014-09-25;9;0
2014-09-24;6;0
2014-09-23;6;0
2014-09-22;6;0
2014-09-21;5;0
2014-09-20;3;0
2014-09-19;6;0
2014-09-18;14;0
2014-09-17;9;0
2014-09-16;4;0
2014-09-15;10;0
2014-09-14;9;0
2014-09-13;7;0
2014-09-12;9;0
2014-09-11;6;0
2014-09-10;6;0
2014-09-09;2;0
2014-09-08;8;0
2014-09-07;11;0
2014-09-06;7;0
2014-09-05;6;0
2014-09-04;5;0
2014-09-03;5;0
2014-09-02;5;0
2014-09-01;5;0
2014-08-31;3;0
2014-08-30;6;0
2014-08-29;3;0
2014-08-28;8;0
2014-08-27;9;0
2014-08-26;3;0
2014-08-25;4;0
2014-08-24;1;0
2014-08-23;3;0
2014-08-22;2;0
2014-08-21;4;0
2014-08-20;14;0
2014-08-19;14;0
2014-08-18;17;0
2014-08-17;24;0
2014-08-16;15;0
2014-08-15;18;0
2014-08-14;15;0
2014-08-13;22;0
2014-08-12;24;0
2014-08-11;23;0
2014-08-10;19;0
2014-08-09;24;0
2014-08-08;22;0
2014-08-07;27;0
2014-08-06;23;0
2014-08-05;30;0
2014-08-04;17;0
2014-08-03;31;0
2014-08-02;28;0
2014-08-01;24;0
2014-07-31;29;0
2014-07-30;27;0
2014-07-29;33;0
2014-07-28;25;0
2014-07-27;20;0
2014-07-26;23;0
2014-07-25;23;0
2014-07-24;28;0
2014-07-23;31;0
2014-07-22;30;0
2014-07-21;33;0
2014-07-20;32;0
2014-07-19;23;0
2014-07-18;34;0
2014-07-17;22;0
2014-07-16;23;0
2014-07-15;19;0
2014-07-14;26;0
2014-07-13;23;0
2014-07-12;32;0
2014-07-11;30;0
2014-07-10;29;0
2014-07-09;21;0
2014-07-08;26;0
2014-07-07;27;0
2014-07-06;20;0
2014-07-05;24;0
2014-07-04;20;0
2014-07-03;16;0
2014-07-02;14;0
2014-07-01;22;0
2014-06-30;18;0
2014-06-29;22;0
2014-06-28;28;0
2014-06-27;23;0
2014-06-26;29;0
2014-06-25;21;0
2014-06-24;22;0
2014-06-23;29;0
2014-06-22;28;0
2014-06-21;32;0
2014-06-20;25;0
2014-06-19;30;0
2014-06-18;26;0
2014-06-17;23;0
2014-06-16;29;0
2014-06-15;24;0
2014-06-14;27;0
2014-06-13;16;0
2014-06-12;24;0
2014-06-11;31;0
2014-06-10;33;0
2014-06-09;21;0
2014-06-08;27;0
2014-06-07;28;0
2014-06-06;22;0
2014-06-05;30;0
2014-06-04;30;0
2014-06-03;27;0
2014-06-02;33;0
2014-06-01;27;0
2014-05-31;20;0
2014-05-30;31;0
2014-05-29;29;0
2014-05-28;25;0
2014-05-27;28;0
2014-05-26;27;0
2014-05-25;28;0
2014-05-24;34;0
2014-05-23;23;0
2014-05-22;23;0
2014-05-21;24;0
2014-05-20;28;0
2014-05-19;28;0
2014-05-18;31;0
2014-05-17;28;0
2014-05-16;25;0
2014-05-15;27;0
2014-05-14;32;0
2014-05-13;30;0
2014-05-12;28;0
2014-05-11;40;0
2014-05-10;29;0
2014-05-09;24;0
2014-05-08;38;0
2014-05-07;30;0
2014-05-06;31;0
2014-05-05;31;0
2014-05-04;28;0
2014-05-03;27;0
2014-05-02;30;0
2014-05-01;19;0
2014-04-30;23;0
2014-04-29;29;0
2014-04-28;22;0
2014-04-27;29;0
2014-04-26;25;0
2014-04-25;28;0
2014-04-24;39;0
2014-04-23;35;0
2014-04-22;29;0
2014-04-21;30;0
2014-04-20;35;0
2014-04-19;27;0
2014-04-18;25;0
2014-04-17;30;0
2014-04-16;30;0
2014-04-15;31;0
2014-04-14;31;0
2014-04-13;29;0
2014-04-12;34;0
2014-04-11;29;0
2014-04-10;24;0
2014-04-09;23;0
2014-04-08;21;0
2014-04-07;22;0
2014-04-06;27;0
2014-04-05;31;0
2014-04-04;29;0
2014-04-03;22;0
2014-04-02;29;0
2014-04-01;24;0
2014-03-31;26;0
2014-03-30;34;0
2014-03-29;23;0
2014-03-28;27;0
2014-03-27;27;0
2014-03-26;28;0
2014-03-25;21;0
2014-03-24;22;0
2014-03-23;37;0
2014-03-22;25;0
2014-03-21;23;0
2014-03-20;28;0
2014-03-19;28;0
2014-03-18;28;0
2014-03-17;37;0
2014-03-16;27;0
2014-03-15;25;0
2014-03-14;22;0
2014-03-13;27;0
2014-03-12;29;0
2014-03-11;26;0
2014-03-10;39;0
2014-03-09;35;0
2014-03-08;32;0
2014-03-07;27;0
2014-03-06;32;0
2014-03-05;33;0
2014-03-04;28;0
2014-03-03;32;0
2014-03-02;29;0
2014-03-01;36;0
2014-02-28;27;0
2014-02-27;26;0
2014-02-26;31;1
2014-02-25;35;0
2014-02-24;22;0
2014-02-23;33;0
2014-02-22;27;0
2014-02-21;28;0
2014-02-20;29;0
2014-02-19;22;0
2014-02-18;27;0
2014-02-17;34;0
2014-02-16;30;0
2014-02-15;25;0
2014-02-14;20;0
2014-02-13;26;0
2014-02-12;27;0
2014-02-11;32;0
2014-02-10;30;0
2014-02-09;32;0
2014-02-08;35;0
2014-02-07;28;0
2014-02-06;28;0
2014-02-05;29;0
2014-02-04;26;0
2014-02-03;27;0
2014-02-02;31;0
2014-02-01;18;0
2014-01-31;38;0
2014-01-30;25;0
2014-01-29;22;0
2014-01-28;25;0
2014-01-27;31;1
2014-01-26;23;0
2014-01-25;37;0
2014-01-24;27;0
2014-01-23;22;0
2014-01-22;22;0
2014-01-21;20;0
2014-01-20;17;0
2014-01-19;25;0
2014-01-18;31;0
2014-01-17;21;0
2014-01-16;20;0
2014-01-15;18;0
2014-01-14;26;0
2014-01-13;20;0
2014-01-12;23;0
2014-01-11;27;0
2014-01-10;16;0
2014-01-09;20;0
2014-01-08;17;0
2014-01-07;8;0
2014-01-06;10;0
2014-01-05;9;0
2014-01-04;14;0
2014-01-03;12;0
2014-01-02;18;0
2014-01-01;15;0
2013-12-31;20;0
2013-12-30;17;0
2013-12-29;18;0
2013-12-28;23;0
2013-12-27;22;0
2013-12-26;17;0
2013-12-25;21;0
2013-12-24;19;0
2013-12-23;14;0
2013-12-22;18;0
2013-12-21;20;0
2013-12-20;17;0
2013-12-19;19;0
2013-12-18;19;0
2013-12-17;17;0
2013-12-16;20;0
2013-12-15;22;0
2013-12-14;21;0
2013-12-13;20;0
2013-12-12;14;0
2013-12-11;21;0
2013-12-10;22;0
2013-12-09;10;0
2013-12-08;19;0
2013-12-07;18;0
2013-12-06;23;0
2013-12-05;15;0
2013-12-04;22;0
2013-12-03;17;0
2013-12-02;14;0
2013-12-01;19;0
2013-11-30;22;0
2013-11-29;12;0
2013-11-28;19;0
2013-11-27;17;0
2013-11-26;20;0
2013-11-25;22;0
2013-11-24;19;0
2013-11-23;20;0
2013-11-22;15;0
2013-11-21;11;0
2013-11-20;19;0
2013-11-19;15;0
2013-11-18;17;0
2013-11-17;17;0
2013-11-16;17;0
2013-11-15;17;0
2013-11-14;15;0
2013-11-13;14;0
2013-11-12;14;0
2013-11-11;16;0
2013-11-10;10;0
2013-11-09;15;0
2013-11-08;7;0
2013-11-07;18;0
2013-11-06;12;0
2013-11-05;11;0
2013-11-04;11;0
2013-11-03;22;0
2013-11-02;14;0
2013-11-01;14;0
2013-10-31;19;0
2013-10-30;15;0
2013-10-29;17;0
2013-10-28;17;0
2013-10-27;21;0
2013-10-26;8;0
2013-10-25;15;0
2013-10-24;21;0
2013-10-23;22;0
2013-10-22;20;0
2013-10-21;16;0
2013-10-20;14;0
2013-10-19;15;0
2013-10-18;14;0
2013-10-17;21;0
2013-10-16;19;0
2013-10-15;19;0
2013-10-14;23;0
2013-10-13;22;0
2013-10-12;18;0
2013-10-11;17;0
2013-10-10;17;0
2013-10-09;13;0
2013-10-08;11;0
2013-10-07;10;0
2013-10-06;12;0
2013-10-05;15;0
2013-10-04;16;0
2013-10-03;11;0
2013-10-02;12;0
2013-10-01;16;0
2013-09-30;7;0
2013-09-29;10;0
2013-09-28;16;0
2013-09-27;11;0
2013-09-26;7;0
2013-09-25;6;0
2013-09-24;9;0
2013-09-23;6;0
2013-09-22;11;0
2013-09-21;7;0
2013-09-20;11;0
2013-09-19;11;0
2013-09-18;8;0
2013-09-17;10;0
2013-09-16;8;0
2013-09-15;7;0
2013-09-14;3;0
2013-09-13;4;0
2013-09-12;4;0
2013-09-11;6;0
2013-09-10;10;0
2013-09-09;1;0
2013-09-08;7;0
2013-09-07;8;0
2013-09-06;8;0
2013-09-05;6;0
2013-09-04;6;0
2013-09-03;9;0
2013-09-02;6;0
2013-09-01;12;0
2013-08-31;7;0
2013-08-30;10;0
2013-08-29;12;0
2013-08-28;13;0
2013-08-27;10;0
2013-08-26;13;0
2013-08-25;13;0
2013-08-24;8;0
2013-08-23;8;0
2013-08-22;11;0
2013-08-21;11;0
2013-08-20;7;0
2013-08-19;5;0
2013-08-18;4;0
2013-08-17;5;0
2013-08-16;12;0
2013-08-15;8;0
2013-08-14;4;0
2013-08-13;7;0
2013-08-12;8;0
2013-08-11;12;0
2013-08-10;3;0
2013-08-09;10;0
2013-08-08;10;0
2013-08-07;11;0
2013-08-06;6;0
2013-08-05;5;0
2013-08-04;5;0
2013-08-03;5;0
2013-08-02;4;0
2013-08-01;8;0
2013-07-31;4;0
2013-07-30;3;0
2013-07-29;4;0
2013-07-28;5;0
2013-07-27;12;0
2013-07-26;10;0
2013-07-25;4;0
2013-07-24;5;0
2013-07-23;5;0
2013-07-22;4;0
2013-07-21;3;0
2013-07-20;6;0
2013-07-19;10;0
2013-07-18;7;0
2013-07-17;7;0
2013-07-16;4;0
2013-07-15;4;0
2013-07-14;1;0
2013-07-13;6;0
2013-07-12;8;0
2013-07-11;9;0
2013-07-10;5;0
2013-07-09;4;0
2013-07-08;8;0
2013-07-07;8;0
2013-07-06;8;0
2013-07-05;7;0
2013-07-04;7;0
2013-07-03;2;0
2013-07-02;8;0
2013-07-01;10;0
2013-06-30;8;0
2013-06-29;7;0
2013-06-28;8;0
2013-06-27;9;0
2013-06-26;8;0
2013-06-25;10;0
2013-06-24;8;0
2013-06-23;4;0
2013-06-22;8;0
2013-06-21;13;0
2013-06-20;9;0
2013-06-19;12;0
2013-06-18;13;0
2013-06-17;11;0
2013-06-16;11;0
2013-06-15;7;0
2013-06-14;14;0
2013-06-13;14;0
2013-06-12;14;0
2013-06-11;17;0
2013-06-10;13;0
2013-06-09;15;0
2013-06-08;14;0
2013-06-07;19;0
2013-06-06;13;0
2013-06-05;16;0
2013-06-04;17;0
2013-06-03;13;0
2013-06-02;13;0
2013-06-01;10;0
2013-05-31;15;0
2013-05-30;16;0
2013-05-29;13;0
2013-05-28;13;0
2013-05-27;15;0
2013-05-26;14;0
2013-05-25;16;0
2013-05-24;15;0
2013-05-23;11;0
2013-05-22;14;0
2013-05-21;16;0
2013-05-20;13;0
2013-05-19;10;0
2013-05-18;14;0
2013-05-17;11;0
2013-05-16;13;0
2013-05-15;13;0
2013-05-14;16;0
2013-05-13;21;0
2013-05-12;20;0
2013-05-11;13;0
2013-05-10;15;0
2013-05-09;10;0
2013-05-08;8;0
2013-05-07;11;0
2013-05-06;10;0
2013-05-05;12;0
2013-05-04;14;0
2013-05-03;17;0
2013-05-02;10;0
2013-05-01;15;0
2013-04-30;12;0
2013-04-29;12;0
2013-04-28;14;0
2013-04-27;12;0
2013-04-26;11;0
2013-04-25;16;0
2013-04-24;19;0
2013-04-23;15;1
2013-04-22;4;0
2013-04-21;17;0
2013-04-20;7;0
2013-04-19;12;0
2013-04-18;9;0
2013-04-17;14;0
2013-04-16;7;0
2013-04-15;8;0
2013-04-14;10;0
2013-04-13;10;0
2013-04-12;6;0
2013-04-11;7;0
2013-04-10;7;0
2013-04-09;7;0
2013-04-08;7;0
2013-04-07;9;0
2013-04-06;4;0
2013-04-05;8;0
2013-04-04;7;0
2013-04-03;3;0
2013-04-02;4;0
2013-04-01;6;0
2013-03-31;5;0
2013-03-30;8;0
2013-03-29;9;0
2013-03-28;8;0
2013-03-27;8;0
2013-03-26;8;0
2013-03-25;7;0
2013-03-24;8;0
2013-03-23;4;0
2013-03-22;6;0
2013-03-21;4;0
2013-03-20;4;0
2013-03-19;3;0
2013-03-18;4;0
2013-03-17;3;0
2013-03-16;4;0
2013-03-15;4;0
2013-03-14;3;0
2013-03-13;6;0
2013-03-12;6;0
2013-03-11;7;0
2013-03-10;8;0
2013-03-09;7;0
2013-03-08;4;0
2013-03-07;3;0
2013-03-06;5;0
2013-03-05;5;0
2013-03-04;6;0
2013-03-03;6;0
2013-03-02;5;0
2013-03-01;3;0
2013-02-28;4;0
2013-02-27;7;0
2013-02-26;7;0
2013-02-25;10;0
2013-02-24;11;0
2013-02-23;4;0
2013-02-22;10;0
2013-02-21;7;0
2013-02-20;7;0
2013-02-19;8;0
2013-02-18;7;0
2013-02-17;9;0
2013-02-16;10;0
2013-02-15;6;0
2013-02-14;4;0
2013-02-13;7;0
2013-02-12;8;0
2013-02-11;10;0
2013-02-10;12;0
2013-02-09;10;0
2013-02-08;9;0
2013-02-07;9;0
2013-02-06;7;0
2013-02-05;5;0
2013-02-04;7;0
2013-02-03;9;0
2013-02-02;8;0
2013-02-01;6;0
2013-01-31;10;0
2013-01-30;9;0
2013-01-29;11;0
2013-01-28;8;0
2013-01-27;8;0
2013-01-26;11;0
2013-01-25;8;0
2013-01-24;8;0
2013-01-23;13;0
2013-01-22;6;0
2013-01-21;7;0
2013-01-20;7;0
2013-01-19;4;0
2013-01-18;8;0
2013-01-17;8;0
2013-01-16;6;0
2013-01-15;8;0
2013-01-14;11;0
2013-01-13;11;0
2013-01-12;9;0
2013-01-11;6;0
2013-01-10;10;0
2013-01-09;8;0
2013-01-08;3;0
2013-01-07;9;0
2013-01-06;6;0
2013-01-05;7;0
2013-01-04;6;0
2013-01-03;8;0
2013-01-02;5;0
2013-01-01;4;0
2012-12-31;8;0
2012-12-30;7;0
2012-12-29;9;0
2012-12-28;7;0
2012-12-27;7;0
2012-12-26;4;0
2012-12-25;4;0
2012-12-24;7;0
2012-12-23;8;0
2012-12-22;6;0
2012-12-21;8;0
2012-12-20;6;0
2012-12-19;7;0
2012-12-18;7;0
2012-12-17;11;0
2012-12-16;12;0
2012-12-15;9;0
2012-12-14;10;0
2012-12-13;10;0
2012-12-12;10;0
2012-12-11;10;0
2012-12-10;5;0
2012-12-09;12;0
2012-12-08;3;0
2012-12-07;4;0
2012-12-06;9;0
2012-12-05;4;0
2012-12-04;3;0
2012-12-03;1;0
2012-11-30;6;0
2012-11-29;5;0
2012-11-28;7;0
2012-11-27;9;0
2012-11-26;5;0
2012-11-25;6;0
2012-11-24;8;0
2012-11-23;6;0
2012-11-22;6;0
2012-11-21;8;0
2012-11-20;3;0
2012-11-19;3;0
2012-11-18;9;0
2012-11-17;4;0
2012-11-16;3;0
2012-11-15;5;0
2012-11-14;3;0
2012-11-11;5;0
2012-11-10;1;0
2012-11-09;4;0
2012-11-08;4;0
2012-11-07;3;0
2012-11-06;4;0
2012-11-05;4;0
2012-11-04;3;0
2012-11-03;3;0
2012-11-02;3;0
2012-11-01;3;0
2012-10-31;3;0
2012-10-30;5;0
2012-10-29;2;0
2012-10-28;5;0
2012-10-27;6;0
2012-10-26;5;0
2012-10-25;2;0
2012-10-24;4;0
2012-10-23;4;0
2012-10-22;4;0
2012-10-21;2;0
2012-10-20;5;0
2012-10-19;1;0
2012-10-18;1;0
2012-10-17;4;0
2012-10-16;5;0
2012-10-15;1;0
2012-10-14;4;0
2012-10-13;3;0
2012-10-12;5;0
2012-10-11;3;0
2012-10-10;3;0
2012-10-09;2;0
2012-10-08;2;0
2012-10-07;3;0
2012-10-06;2;0
2012-10-05;4;0
2012-10-04;2;0
2012-10-03;4;0
2012-10-02;2;0
2012-10-01;4;0
2012-09-30;4;0
2012-09-29;2;0
2012-09-28;4;0
2012-09-27;4;0
2012-09-26;1;0
2012-09-25;2;0
2012-09-24;2;0
2012-09-22;2;0
2012-09-21;3;0
2012-09-20;2;0
2012-09-19;2;0
2012-09-18;2;0
2012-09-17;3;0
2012-09-16;6;0
2012-09-15;4;0
2012-09-14;4;0
2012-09-13;2;0
2012-09-12;1;0
2012-09-11;3;0
2012-09-10;1;0
2012-09-09;4;0
2012-09-08;2;0
2012-09-07;3;0
2012-09-06;4;0
2012-09-05;5;0
2012-09-04;3;0
2012-09-02;5;0
2012-09-01;3;0
2012-08-31;3;0
2012-08-30;1;0
2012-08-29;2;0
2012-08-28;2;0
2012-08-27;2;0
2012-08-26;1;0
2012-08-25;2;0
2012-08-24;2;0
2012-08-23;1;0
2012-08-21;3;0
2012-08-20;4;0
2012-08-19;3;0
2012-08-18;2;0
2012-08-17;2;0
2012-08-16;3;0
2012-08-14;1;0
2012-08-13;1;0
2012-08-12;2;0
2012-08-11;2;0
2012-08-09;3;0
2012-08-08;2;0
2012-08-07;4;0
2012-08-04;3;0
2012-08-03;2;0
2012-08-02;1;0
2012-07-31;2;0
2012-07-30;1;0
2012-07-28;2;0
2012-07-27;3;0
2012-07-26;3;0
2012-07-25;2;0
2012-07-24;4;0
2012-07-23;4;0
2012-07-22;2;0
2012-07-21;3;0
2012-07-20;1;0
2012-07-19;2;0
2012-07-16;3;0
2012-07-15;1;0
2012-07-14;4;0
2012-07-13;5;0
2012-07-12;5;0
2012-07-11;1;0
2012-07-10;5;0
2012-07-09;3;0
2012-07-08;3;0
2012-07-07;3;0
2012-07-06;3;0
2012-07-05;4;0
2012-07-04;4;0
2012-07-03;2;0
2012-07-02;5;0
2012-07-01;3;0
2012-06-30;4;0
2012-06-29;5;0
2012-06-28;1;0
2012-06-27;2;0
2012-06-26;2;0
2012-06-25;2;0
2012-06-24;4;0
2012-06-23;3;0
2012-06-22;4;0
2012-06-21;1;0
2012-06-20;4;0
2012-06-19;3;0
2012-06-18;1;0
2012-06-17;5;0
2012-06-16;2;0
2012-06-15;1;0
2012-06-14;4;0
2012-06-13;3;0
2012-06-12;4;0
2012-06-11;1;0
